This is the latest recevied weather packets stored in our database for station/object WA2TQI. If no packets are shown the sender has not sent any weather packets the latest 10 day(s).
| Time | Temp. | Humidity | Pressure | Rain* | Wind** | Luminosity | Snow |
|---|---|---|---|---|---|---|---|
| 1777681385 | 13.89° C | 60% | 1012.5 hPa | 0 mm | - | - | - |
| 1777681082 | 13.89° C | 61% | 1012.5 hPa | 0 mm | - | - | - |
| 1777680780 | 13.89° C | 61% | 1012.4 hPa | 0 mm | - | - | - |
| 1777680477 | 14.44° C | 61% | 1012.4 hPa | 0 mm | - | - | - |
| 1777680175 | 14.44° C | 58% | 1012.7 hPa | 0 mm | - | - | - |
| 1777679870 | 15° C | 58% | 1012.7 hPa | 0 mm | - | - | - |
| 1777679566 | 15° C | 56% | 1012.6 hPa | 0 mm | - | - | - |
| 1777679262 | 15.56° C | 56% | 1012.4 hPa | 0 mm | - | - | - |
| 1777678959 | 15.56° C | 54% | 1012.4 hPa | 0 mm | - | - | - |
| 1777678658 | 15.56° C | 54% | 1012.4 hPa | 0 mm | - | - | - |
| 1777678355 | 15.56° C | 54% | 1012.5 hPa | 0 mm | - | - | - |
| 1777678050 | 16.11° C | 53% | 1012.4 hPa | 0 mm | - | - | - |
| 1777677748 | 16.11° C | 54% | 1012.3 hPa | 0 mm | - | - | - |
| 1777677446 | 16.11° C | 53% | 1012.3 hPa | 0 mm | - | - | - |
| 1777677144 | 16.11° C | 54% | 1012.2 hPa | 0 mm | - | - | - |
| 1777676841 | 16.11° C | 56% | 1012 hPa | 0 mm | - | - | - |
| 1777676540 | 16.11° C | 56% | 1012.1 hPa | 0 mm | - | - | - |
| 1777676237 | 16.67° C | 53% | 1012.3 hPa | 0 mm | - | - | - |
| 1777675935 | 16.67° C | 51% | 1012.2 hPa | 0 mm | - | - | - |
| 1777675630 | 16.67° C | 50% | 1012.1 hPa | 0 mm | - | - | - |
| 1777675328 | 16.67° C | 52% | 1012.1 hPa | 0 mm | - | - | - |
| 1777675023 | 16.67° C | 50% | 1012.1 hPa | 0 mm | - | - | - |
| 1777674721 | 16.67° C | 50% | 1012.2 hPa | 0 mm | - | - | - |
| 1777674417 | 16.67° C | 50% | 1012.2 hPa | 0 mm | - | - | - |
| 1777674115 | 16.67° C | 50% | 1012.2 hPa | 0 mm | - | - | - |
* Rain latest hour (hover to see other rain measurements)
** Current wind speed in m/s (hover to see current wind gust speed)